Location: Vale
(35.4830°N, 81.3830°W)
Time: 21:57:46
(UTC-04:00)

Cosmos 2237 Rocket - Visible Passes

Search period start: 28 August 2016 00:00
Search period end: 07 September 2016 00:00
Orbit: 834 x 851 km, 71.0° (Epoch: 28 August)

Date Brightness Start Highest point End Pass type
(mag) Time Alt. Az. Time Alt. Az. Time Alt. Az.
28 Aug 4.8 02:08:49 15° N 02:08:49 15° N 02:09:55 10° N visible
29 Aug 4.9 01:54:15 14° N 01:54:15 14° N 01:55:07 10° N visible
30 Aug 4.9 01:39:40 13° N 01:39:40 13° N 01:40:20 10° N visible
31 Aug 5.0 01:25:04 12° N 01:25:04 12° N 01:25:32 10° N visible
01 Sep 5.0 01:10:26 11° N 01:10:26 11° N 01:10:45 10° N visible
02 Sep 5.1 00:55:47 11° N 00:55:47 11° N 00:55:57 10° N visible
03 Sep 5.1 00:41:07 10° NNE 00:41:07 10° NNE 00:41:09 10° NNE visible
